When you browse on this site, cookies collect data to enhance your experience and personalize the content and advertising you see.
Visit our Privacy Policy to learn more. By continuing to use the site, you agree to this use of cookies and data.
  • In Deutschland
  • Länderverzeichnis
  • Für 7 Tage
  • Wassertemperatur
  • Satellitenkarten
  • Wetterkarte
  • Widgets
  • user-avatar
    Anmelden

    Stündliche Wetter Gozdy

    Heute, 23 Mai, Donnerstag

    Zeit Temperatur Niederschläge Wind Luftdruck Luftfeuchtigkeit
    00:00 +14°C° 0 mm 1 m/S 747 mmHg 90%
    01:00 +13°C° 0 mm 2 m/S 747 mmHg 92%
    02:00 +13°C° 0 mm 2 m/S 747 mmHg 94%
    03:00 +12°C° 0 mm 3 m/S 747 mmHg 95%
    04:00 +12°C° 0 mm 3 m/S 748 mmHg 97%
    05:00 +13°C° 0.1 mm 3 m/S 748 mmHg 95%
    06:00 +14°C° 0.1 mm 3 m/S 748 mmHg 94%
    07:00 +14°C° 0.1 mm 4 m/S 749 mmHg 92%
    08:00 +14°C° 0 mm 4 m/S 749 mmHg 91%
    09:00 +15°C° 0 mm 4 m/S 749 mmHg 90%
    10:00 +15°C° 0 mm 4 m/S 749 mmHg 89%
    11:00 +15°C° 0 mm 5 m/S 749 mmHg 86%
    12:00 +16°C° 0 mm 5 m/S 749 mmHg 84%
    13:00 +16°C° 0 mm 5 m/S 749 mmHg 81%
    14:00 +16°C° 0 mm 5 m/S 749 mmHg 82%
    15:00 +15°C° 0 mm 6 m/S 749 mmHg 83%
    16:00 +15°C° 0 mm 6 m/S 749 mmHg 84%
    17:00 +14°C° 0 mm 5 m/S 750 mmHg 84%
    18:00 +14°C° 0 mm 5 m/S 750 mmHg 84%
    19:00 +13°C° 0 mm 4 m/S 750 mmHg 84%
    20:00 +12°C° 0 mm 4 m/S 750 mmHg 86%
    21:00 +11°C° 0 mm 3 m/S 750 mmHg 87%
    22:00 +10°C° 0 mm 2 m/S 751 mmHg 88%
    23:00 +9°C° 0 mm 2 m/S 751 mmHg 87%

    Morgen, 24 Mai, Freitag

    Zeit Temperatur Niederschläge Wind Luftdruck Luftfeuchtigkeit
    00:00 +9°C° 0 mm 3 m/S 751 mmHg 85%
    01:00 +9°C° 0 mm 3 m/S 751 mmHg 83%
    02:00 +9°C° 0 mm 3 m/S 751 mmHg 83%
    03:00 +9°C° 0 mm 3 m/S 751 mmHg 84%
    04:00 +8°C° 0 mm 3 m/S 751 mmHg 85%
    05:00 +10°C° 0 mm 3 m/S 751 mmHg 83%
    06:00 +11°C° 0 mm 3 m/S 751 mmHg 82%
    07:00 +12°C° 0 mm 3 m/S 751 mmHg 80%
    08:00 +14°C° 0 mm 3 m/S 751 mmHg 74%
    09:00 +17°C° 0 mm 3 m/S 751 mmHg 68%
    10:00 +18°C° 0 mm 3 m/S 751 mmHg 61%
    11:00 +19°C° 0 mm 3 m/S 750 mmHg 58%
    12:00 +20°C° 0 mm 3 m/S 750 mmHg 55%
    13:00 +20°C° 0 mm 3 m/S 750 mmHg 52%
    14:00 +20°C° 0 mm 3 m/S 750 mmHg 53%
    15:00 +20°C° 0 mm 2 m/S 749 mmHg 54%
    16:00 +20°C° 0 mm 2 m/S 749 mmHg 54%
    17:00 +19°C° 0 mm 2 m/S 749 mmHg 60%
    18:00 +19°C° 0 mm 1 m/S 749 mmHg 66%
    19:00 +18°C° 0 mm 1 m/S 749 mmHg 71%
    20:00 +16°C° 0 mm 1 m/S 749 mmHg 75%
    21:00 +15°C° 0 mm 1 m/S 749 mmHg 78%
    22:00 +14°C° 0 mm 1 m/S 749 mmHg 81%
    23:00 +13°C° 0 mm 1 m/S 748 mmHg 83%

    übermorgen, 25 Mai, Samstag

    Zeit Temperatur Niederschläge Wind Luftdruck Luftfeuchtigkeit
    00:00 +13°C° 0 mm 2 m/S 748 mmHg 85%
    01:00 +12°C° 0 mm 2 m/S 748 mmHg 87%
    02:00 +12°C° 0 mm 2 m/S 748 mmHg 86%
    03:00 +12°C° 0 mm 2 m/S 748 mmHg 86%
    04:00 +12°C° 0 mm 2 m/S 747 mmHg 85%
    05:00 +12°C° 0 mm 3 m/S 747 mmHg 81%
    06:00 +13°C° 0 mm 3 m/S 747 mmHg 77%
    07:00 +15°C° 0 mm 4 m/S 748 mmHg 73%
    08:00 +17°C° 0 mm 4 m/S 748 mmHg 72%
    09:00 +17°C° 0 mm 5 m/S 748 mmHg 70%
    10:00 +19°C° 0 mm 5 m/S 748 mmHg 69%
    11:00 +19°C° 0 mm 6 m/S 748 mmHg 65%
    12:00 +20°C° 0 mm 6 m/S 748 mmHg 61%
    13:00 +20°C° 0 mm 7 m/S 748 mmHg 57%
    14:00 +19°C° 0 mm 6 m/S 747 mmHg 59%
    15:00 +19°C° 0 mm 6 m/S 747 mmHg 60%
    16:00 +19°C° 0 mm 6 m/S 747 mmHg 62%
    17:00 +16°C° 0 mm 5 m/S 747 mmHg 67%
    18:00 +15°C° 0 mm 4 m/S 747 mmHg 73%
    19:00 +15°C° 0 mm 2 m/S 747 mmHg 78%
    20:00 +14°C° 0 mm 2 m/S 747 mmHg 80%
    21:00 +12°C° 0 mm 3 m/S 747 mmHg 81%
    22:00 +11°C° 0 mm 3 m/S 747 mmHg 83%
    23:00 +11°C° 0 mm 3 m/S 747 mmHg 83%

    26 Mai, Sonntag

    Zeit Temperatur Niederschläge Wind Luftdruck Luftfeuchtigkeit
    00:00 +11°C° 0 mm 3 m/S 747 mmHg 84%
    01:00 +11°C° 0 mm 4 m/S 747 mmHg 84%
    02:00 +10°C° 0 mm 4 m/S 746 mmHg 86%
    03:00 +10°C° 0 mm 4 m/S 746 mmHg 87%
    04:00 +9°C° 0 mm 5 m/S 746 mmHg 89%
    05:00 +9°C° 0.1 mm 5 m/S 746 mmHg 87%
    06:00 +9°C° 0.1 mm 6 m/S 746 mmHg 85%
    07:00 +10°C° 0.1 mm 6 m/S 746 mmHg 84%
    08:00 +9°C° 0.5 mm 6 m/S 746 mmHg 84%
    09:00 +9°C° 0.5 mm 6 m/S 746 mmHg 85%
    10:00 +9°C° 0.5 mm 7 m/S 746 mmHg 86%
    11:00 +10°C° 0.5 mm 8 m/S 746 mmHg 82%
    12:00 +10°C° 0.5 mm 9 m/S 746 mmHg 79%
    13:00 +11°C° 0.5 mm 9 m/S 746 mmHg 76%
    14:00 +11°C° 0.2 mm 9 m/S 746 mmHg 75%
    15:00 +10°C° 0.2 mm 9 m/S 746 mmHg 74%
    16:00 +10°C° 0.2 mm 8 m/S 746 mmHg 73%
    17:00 +10°C° 0 mm 7 m/S 746 mmHg 73%
    18:00 +9°C° 0 mm 6 m/S 746 mmHg 73%
    19:00 +9°C° 0 mm 5 m/S 746 mmHg 73%
    20:00 +8°C° 0 mm 5 m/S 747 mmHg 75%
    21:00 +7°C° 0 mm 5 m/S 747 mmHg 78%
    22:00 +7°C° 0 mm 4 m/S 747 mmHg 81%
    23:00 +6°C° 0 mm 4 m/S 747 mmHg 83%

    27 Mai, Montag

    Zeit Temperatur Niederschläge Wind Luftdruck Luftfeuchtigkeit
    00:00 +6°C° 0 mm 4 m/S 748 mmHg 85%
    01:00 +5°C° 0 mm 4 m/S 748 mmHg 87%
    02:00 +5°C° 0 mm 3 m/S 748 mmHg 89%
    03:00 +4°C° 0 mm 3 m/S 748 mmHg 92%
    04:00 +4°C° 0 mm 3 m/S 748 mmHg 94%
    05:00 +7°C° 0 mm 3 m/S 748 mmHg 88%
    06:00 +9°C° 0 mm 3 m/S 748 mmHg 82%
    07:00 +11°C° 0 mm 4 m/S 748 mmHg 76%
    08:00 +13°C° 0 mm 4 m/S 747 mmHg 72%
    09:00 +14°C° 0 mm 5 m/S 747 mmHg 68%
    10:00 +16°C° 0 mm 5 m/S 747 mmHg 64%
    11:00 +17°C° 0 mm 5 m/S 746 mmHg 65%
    12:00 +20°C° 0 mm 6 m/S 746 mmHg 65%
    13:00 +21°C° 0 mm 6 m/S 745 mmHg 66%
    14:00 +21°C° 0.5 mm 6 m/S 745 mmHg 68%
    15:00 +21°C° 0.5 mm 6 m/S 744 mmHg 71%
    16:00 +21°C° 0.5 mm 6 m/S 744 mmHg 73%
    17:00 +20°C° 0.6 mm 5 m/S 744 mmHg 76%
    18:00 +19°C° 0.6 mm 4 m/S 744 mmHg 79%
    19:00 +18°C° 0.6 mm 3 m/S 744 mmHg 82%
    20:00 +17°C° 0.3 mm 3 m/S 744 mmHg 85%
    21:00 +16°C° 0.3 mm 3 m/S 744 mmHg 89%
    22:00 +14°C° 0.3 mm 3 m/S 744 mmHg 92%
    23:00 +14°C° 0.2 mm 3 m/S 744 mmHg 92%

    28 Mai, Dienstag

    Zeit Temperatur Niederschläge Wind Luftdruck Luftfeuchtigkeit
    00:00 +14°C° 0.2 mm 3 m/S 743 mmHg 93%
    01:00 +13°C° 0.2 mm 3 m/S 743 mmHg 94%
    02:00 +14°C° 0.2 mm 2 m/S 743 mmHg 94%
    03:00 +14°C° 0.2 mm 2 m/S 743 mmHg 95%
    04:00 +14°C° 0.2 mm 2 m/S 743 mmHg 95%
    05:00 +14°C° 0.9 mm 2 m/S 743 mmHg 95%
    06:00 +15°C° 0.9 mm 2 m/S 742 mmHg 94%
    07:00 +16°C° 0.9 mm 2 m/S 742 mmHg 94%
    08:00 +16°C° 0.9 mm 2 m/S 742 mmHg 94%
    09:00 +16°C° 0.9 mm 3 m/S 742 mmHg 93%
    10:00 +15°C° 0.9 mm 4 m/S 743 mmHg 93%
    11:00 +14°C° 0.8 mm 4 m/S 743 mmHg 92%
    12:00 +14°C° 0.8 mm 4 m/S 743 mmHg 92%
    13:00 +13°C° 0.8 mm 4 m/S 743 mmHg 91%
    14:00 +14°C° 0 mm 4 m/S 743 mmHg 87%
    15:00 +15°C° 0 mm 4 m/S 743 mmHg 82%
    16:00 +17°C° 0 mm 4 m/S 743 mmHg 78%
    17:00 +16°C° 0 mm 3 m/S 744 mmHg 80%
    18:00 +14°C° 0 mm 3 m/S 744 mmHg 83%
    19:00 +15°C° 0 mm 2 m/S 744 mmHg 85%
    20:00 +14°C° 0 mm 2 m/S 745 mmHg 87%
    21:00 +13°C° 0 mm 1 m/S 745 mmHg 89%
    22:00 +12°C° 0 mm 1 m/S 746 mmHg 91%
    23:00 +11°C° 0 mm 1 m/S 746 mmHg 91%
    Mehr zeigen